{"data":{"norad_id":63576,"intl_designator":"2025-076H","name":"STARLINK-33800","alt_names":[],"object_type":"PAYLOAD","status":"ACTIVE","operator":null,"country":"US","launch_date":"2025-04-14","launch_site_code":"AFETR","launch_vehicle":null,"mission":null,"orbit_class":"UNKNOWN","rcs_meters":null,"size_class":null,"mass_kg":null,"dimensions":null,"purposes":["comms"],"wikipedia_slug":null,"has_3d_model":false,"image_url":null,"decayed_at":null,"tle_current":{"epoch":"2026-05-25T00:03:26.066592Z","epoch_age_seconds":68738,"freshness":"FRESH","line1":"1 63576U 25076H   26145.00238503  .00010081  00000+0  37533-3 0  9999","line2":"2 63576  42.9998 250.5318 0001246 274.5225  85.5485 15.27583219 63506","mean_motion":15.27583219,"eccentricity":0.0001246,"inclination_deg":42.9998,"raan_deg":250.5318,"arg_perigee_deg":274.5225,"mean_anomaly_deg":85.5485,"bstar":0.00037533,"rev_number":6350,"period_min":94.266550070029,"perigee_km":482.18455462598,"apogee_km":483.89435979912,"semimajor_km":6861.1764572126,"source":"CELESTRAK","updated_at":"2026-05-25T13:38:20.046817Z"}}}